Zurück zum Katalog

CZ-6A DEB

AktivPO
NORAD 60682·DEBRIS·🇨🇳 China

Gestartet Aug 6, 2024 von Taiyuan Satellite Launch Center

Loading…

Nächste Überflüge (nächste 24 Stunden)

TLE

AktuellSource: Space-Track

Epoche: Sep 14, 2026, 11:00 UTC

1 60682U 24140CK  26257.45876933  .00000343  00000-0  14066-3 0  9990
2 60682  89.0006 264.3980 0025543 261.4331  98.3967 14.24783883109075

Verfolge CZ-6A DEB in Echtzeit mit AllMySat

Download on the App Store